Temperature
28 29 29 29 29 29 29 30 30 30 30 30 29 28 26 24 23 22 21 21 20 19 18 18 18 18 18 17 17 17 17 17 17 17 16 16 16 16 16 16 15 15 15 15
27 28 28 28 29 29 29 30 30 30 30 30 28 26 25 24 23 22 21 20 19 19 18 18 18 17 17 17 17 17 17 16 16 16 16 16 16 15 15 15 15 15 15 15
27 27 27 27 28 29 29 29 30 29 30 28 27 26 24 23 22 22 21 20 19 18 18 17 17 17 17 17 17 17 16 16 16 16 15 15 15 15 15 15 15 14 14 14
27 26 25 28 29 29 29 29 29 29 29 28 26 25 23 22 22 21 21 20 19 18 17 17 17 17 17 16 16 16 16 15 15 15 15 15 15 15 15 14 14 14 14 13
26 26 27 27 27 28 28 28 28 28 28 26 24 24 23 22 21 20 20 19 18 18 17 17 17 17 16 16 16 16 15 15 15 15 15 15 15 14 14 14 14 13 13 13
26 26 26 27 27 26 27 27 27 27 26 25 24 26 25 21 20 19 19 18 17 17 17 17 17 16 16 16 15 15 15 15 15 15 15 14 14 14 14 13 13 13 13 12
25 25 27 26 25 25 26 26 24 25 24 24 24 25 22 19 19 18 17 17 17 17 17 16 16 16 16 15 15 15 15 15 15 15 14 14 14 13 13 13 12 12 12 12
25 25 26 23 25 25 24 22 22 23 23 22 21 20 19 18 17 17 16 16 16 16 16 16 16 16 15 15 15 15 15 14 14 14 14 13 13 13 12 12 12 11 11 11
25 25 22 21 21 20 20 20 21 21 21 20 20 19 18 17 16 16 16 16 16 16 16 15 15 15 15 15 15 14 14 14 14 13 13 13 12 12 12 11 11 11 11 11
22 22 21 20 20 19 19 19 19 19 19 19 19 18 17 16 15 15 15 15 15 15 15 15 15 14 15 14 14 14 13 13 13 12 12 12 11 11 11 11 11 11 10 10
21 21 21 20 19 18 18 18 18 18 19 18 18 17 16 15 15 15 15 15 15 15 15 14 14 14 14 14 13 13 13 12 12 12 12 11 11 11 10 10 10 10 10 10
22 20 20 19 17 17 17 17 17 18 17 17 17 16 15 15 14 14 14 14 14 14 14 14 14 14 13 13 13 12 12 12 11 11 11 10 10 10 10 9 9 9 9 9
18 17 17 16 16 16 16 16 16 16 16 16 16 15 15 14 14 14 14 14 13 13 14 13 13 13 13 12 12 12 12 11 11 11 10 10 10 9 9 9 9 9 9 9
16 16 16 16 16 15 15 15 15 15 15 15 15 14 14 14 13 13 13 13 13 13 13 13 13 12 12 12 12 11 11 11 10 10 10 10 9 9 9 9 8 8 8 8
15 15 15 15 15 15 14 15 15 14 14 14 14 13 13 13 13 13 13 13 13 12 12 12 12 12 11 11 11 11 11 10 10 10 10 9 9 9 9 9 8 8 7 7
15 15 14 14 14 14 14 14 14 14 14 13 13 13 13 13 13 13 12 12 12 12 12 12 12 11 11 11 11 10 10 10 10 10 9 9 9 9 9 9 8 8 8 7
14 14 14 14 14 14 14 14 14 13 13 13 13 12 12 12 12 12 12 11 11 11 11 11 11 11 10 10 10 10 10 9 9 9 9 9 9 9 9 9 8 8 8 7
14 14 14 14 14 14 13 13 13 13 12 12 12 12 12 12 11 11 11 11 10 10 10 10 10 10 10 9 9 9 9 9 9 9 9 9 9 9 8 8 8 8 7 7
14 14 13 13 13 13 13 13 12 12 12 12 12 11 11 11 11 11 11 10 10 10 9 10 10 9 9 9 9 9 9 9 9 9 9 8 8 8 8 8 8 8 7 7
13 13 13 13 13 12 12 12 12 12 11 11 11 11 11 10 10 10 10 10 10 10 9 9 9 9 9 9 9 9 9 9 9 9 8 8 8 8 8 8 8 8 7 7
12 12 12 12 12 11 11 11 11 11 11 11 11 10 10 10 10 10 10 9 9 9 9 9 9 9 9 9 9 9 9 9 9 9 9 8 8 8 8 8 8 7 7 7
11 11 11 11 11 11 11 10 10 10 10 10 10 10 10 9 9 9 9 9 9 9 9 9 9 9 9 9 9 9 9 9 9 9 9 8 8 8 8 8 7 7 7 7
11 11 10 10 10 10 10 10 10 10 10 9 9 9 9 9 9 9 9 9 9 9 9 9 9 9 8 9 9 9 9 9 9 9 8 8 8 8 8 7 7 7 7 6
10 10 10 9 10 10 9 9 9 9 9 9 9 9 9 9 9 9 9 9 9 9 9 9 9 9 8 8 8 8 8 9 9 9 8 8 8 8 7 7 7 7 7 6
9 9 9 9 9 9 9 9 9 9 9 9 9 8 9 9 9 9 9 9 9 8 8 8 8 8 8 8 8 8 8 8 9 9 8 8 8 8 7 7 7 7 7 6
9 9 9 9 9 9 9 9 8 9 9 8 8 8 8 8 8 8 8 8 8 8 8 8 8 8 8 8 8 8 8 8 8 8 8 8 8 8 7 7 7 7 7 6
8 8 8 8 8 8 8 8 8 8 9 8 8 8 8 8 8 8 8 8 8 8 8 8 8 8 8 8 8 8 8 8 8 8 8 8 8 7 7 7 7 7 6 6
Wind_Speed
9 5 9 13 15 16 17 15 13 10 10 6 6 7 8 9 11 12 12 12 11 11 10 9 9 8 8 8 7 7 7 7 6 6 5 5 5 4 4 3 3 3 3 3
10 9 10 11 13 15 16 14 13 11 8 3 3 6 9 10 12 12 12 12 12 11 11 10 9 8 8 8 8 7 8 7 6 6 5 5 5 5 4 4 4 4 4 4
12 11 11 14 14 14 13 12 12 12 7 4 5 8 9 11 12 12 12 12 12 11 10 9 9 9 8 8 8 8 7 7 6 6 5 5 5 5 5 5 5 5 6 6
9 10 14 8 6 9 11 10 10 7 4 4 4 5 7 9 10 11 11 12 12 11 11 10 9 9 9 9 8 8 7 7 6 6 6 5 6 6 6 5 6 6 7 7
10 13 11 6 6 8 10 8 6 6 4 4 6 7 6 7 9 10 11 11 11 11 11 10 9 9 10 9 9 8 7 7 6 6 6 6 6 6 5 6 6 6 7 7
10 13 13 8 7 4 7 9 4 5 5 7 9 7 6 9 9 11 11 11 11 11 11 10 9 10 10 10 9 8 7 7 6 6 6 6 6 5 5 6 7 7 8 8
13 12 8 3 4 6 10 3 2 2 5 8 6 1 7 11 10 11 12 12 12 12 10 9 9 10 10 10 9 8 8 7 7 7 7 6 6 5 6 6 7 8 9 9
12 13 8 4 5 5 1 4 3 0 3 5 4 6 11 12 11 12 12 12 12 11 10 9 9 9 10 10 9 9 9 9 8 7 6 6 7 6 6 6 7 7 8 9
5 3 5 2 1 3 3 3 2 1 2 5 7 8 11 11 11 11 12 11 11 11 11 9 8 9 10 10 9 10 10 9 9 8 8 7 7 7 6 5 5 6 6 7
3 2 1 1 1 2 2 3 2 1 2 6 8 10 11 11 11 11 10 10 10 11 11 9 8 9 10 10 10 10 10 9 9 8 9 8 7 6 6 5 5 5 6 6
5 3 2 1 2 3 3 2 1 1 3 6 8 10 11 11 11 10 10 9 9 10 10 10 9 10 10 10 11 11 11 10 9 9 9 9 9 8 8 8 6 5 6 6
4 1 2 0 3 3 2 1 1 2 4 6 8 10 11 11 11 10 10 9 9 10 10 10 10 10 9 9 10 11 10 9 8 8 8 9 10 11 17 13 15 15 13 9
3 2 3 3 3 2 1 0 2 3 5 6 8 11 12 12 11 11 11 10 10 10 10 10 10 10 9 9 9 9 10 9 8 8 8 8 8 9 10 10 14 15 14 13
3 3 3 3 2 1 1 2 3 4 5 7 9 11 12 12 12 12 11 10 11 11 10 10 11 10 9 9 9 10 10 9 8 7 7 7 7 7 8 8 8 8 10 11
5 4 4 3 2 1 2 3 5 6 7 9 10 11 12 13 12 11 11 10 11 11 11 11 11 10 9 10 10 10 9 8 7 7 7 7 7 7 7 8 8 8 8 8
5 4 4 4 4 3 4 5 6 7 8 10 10 11 12 12 12 11 11 10 11 11 10 10 10 10 10 11 11 9 8 9 7 7 8 8 7 7 7 7 7 7 6 6
7 7 7 6 5 5 5 5 6 7 9 10 11 12 13 13 13 12 11 10 10 11 11 11 11 10 10 10 10 9 9 9 8 7 7 7 7 7 7 6 7 6 6 6
8 7 6 6 5 5 5 5 7 8 9 10 12 12 13 13 13 12 12 12 12 11 10 10 11 11 10 10 8 8 9 8 8 8 7 7 7 7 7 7 7 7 7 7
6 5 5 5 5 5 6 7 8 10 11 12 13 12 12 12 13 13 13 13 12 11 9 10 11 11 11 10 9 8 9 9 9 8 8 7 7 7 6 6 6 6 6 6
5 5 6 6 6 6 7 8 10 11 11 13 13 13 13 13 13 13 12 10 8 8 10 11 12 11 11 9 7 8 9 9 9 8 8 7 7 7 6 6 6 6 5 5
5 6 7 8 8 8 9 10 11 12 12 13 13 13 13 13 12 12 11 10 9 10 11 10 9 10 9 8 7 8 8 9 9 8 7 7 7 6 6 6 6 5 5 4
6 7 8 9 9 10 10 10 12 13 13 12 13 14 14 13 12 10 9 8 9 9 9 9 9 9 9 8 8 8 8 8 7 7 7 6 6 6 5 5 5 4 4 4
6 8 8 9 10 11 11 11 12 12 13 13 13 13 13 11 10 10 9 8 9 8 8 8 9 10 7 7 7 7 7 7 7 6 6 6 6 5 5 5 4 4 4 4
8 9 9 10 11 12 12 11 11 11 12 11 11 12 12 10 9 8 9 10 10 9 8 9 11 9 7 6 6 7 6 6 6 6 6 6 5 5 4 4 4 4 4 4
9 10 11 11 11 10 12 13 13 12 12 10 11 11 9 8 9 10 10 11 11 9 9 10 9 8 7 6 6 6 5 5 4 5 5 5 5 5 4 4 4 4 4 4
9 8 8 9 9 9 9 10 10 10 10 10 9 8 9 9 10 10 10 11 12 10 9 9 9 7 6 6 6 6 5 6 5 5 5 5 4 4 4 3 4 3 3 3
10 9 8 9 9 9 9 9 9 9 10 10 10 9 9 9 9 10 11 10 10 9 8 8 7 7 6 6 6 6 5 5 5 5 5 4 4 4 4 4 4 3 4 4
Wind_Direction
238 212 202 206 207 209 222 234 242 240 245 243 209 192 169 162 160 158 157 154 151 146 140 137 134 134 129 124 122 122 119 113 108 106 101 95 88 81 71 64 61 56 42 31
216 210 213 216 212 211 221 232 242 249 246 220 172 166 165 166 166 165 163 158 153 148 143 140 139 137 132 128 124 121 115 110 106 105 103 98 93 87 80 73 66 62 56 48
211 201 212 220 215 213 217 225 233 237 234 172 179 179 174 171 172 170 164 159 154 150 146 142 142 140 135 131 127 122 115 111 108 105 98 94 92 86 80 75 73 69 64 62
212 196 221 219 204 219 223 226 233 242 221 186 185 173 172 172 170 165 161 156 152 149 143 140 140 137 132 130 127 121 115 111 109 106 100 91 83 78 80 79 77 72 67 67
215 215 220 198 194 207 213 219 222 226 197 158 140 147 155 157 162 159 155 149 147 146 140 136 136 136 135 131 126 120 113 108 104 104 102 95 87 79 78 80 79 74 70 66
218 226 224 201 168 191 217 217 193 212 190 170 170 197 173 151 149 145 140 140 139 137 133 132 133 135 133 129 123 117 112 106 99 96 96 93 87 85 85 84 84 80 73 65
219 225 224 121 147 184 211 199 63 209 190 185 199 288 130 143 140 138 137 136 134 133 131 130 133 133 130 126 121 118 115 108 100 96 94 94 91 86 88 90 88 82 79 71
218 225 212 104 176 199 26 22 14 326 187 182 154 122 133 138 137 137 135 135 135 132 127 127 133 133 129 124 123 121 115 109 102 97 93 93 93 90 90 93 96 92 87 77
221 217 78 87 34 12 353 342 346 346 175 164 153 143 141 138 135 134 135 135 134 132 128 128 133 135 128 124 125 121 114 108 103 96 89 87 87 88 91 91 93 93 91 85
222 181 96 65 34 12 351 336 326 302 184 168 159 151 146 139 135 134 133 132 133 133 132 128 127 127 126 128 127 122 116 114 111 104 97 88 82 78 74 71 82 89 90 91
221 217 216 158 52 15 4 8 28 145 168 167 157 153 148 142 139 137 131 131 134 132 129 128 127 125 128 132 133 128 124 122 117 110 104 93 79 59 67 60 53 67 79 82
229 206 263 292 356 348 352 12 107 134 142 151 153 150 145 141 138 134 132 132 132 132 132 132 131 128 130 136 138 136 132 130 127 123 118 114 108 89 60 63 61 57 50 61
284 314 314 298 313 326 328 49 125 139 143 145 145 143 141 137 135 134 135 136 136 135 133 133 131 128 132 138 139 138 135 133 130 128 126 123 120 116 108 85 72 64 60 62
261 261 261 268 293 341 49 117 120 119 126 137 140 139 137 136 136 136 136 136 135 134 134 134 130 128 133 136 136 135 131 125 128 129 127 124 122 121 121 120 114 97 79 74
247 249 258 270 253 210 159 145 138 135 133 137 139 140 141 141 138 134 132 132 132 132 132 133 130 129 133 133 132 132 130 130 126 124 123 122 124 124 121 119 117 116 114 103
256 245 238 232 228 199 171 161 153 148 144 144 143 142 140 136 131 129 132 137 137 134 132 130 127 130 134 134 131 126 120 115 126 131 129 129 128 124 122 123 121 119 115 111
244 236 228 220 210 194 175 164 157 152 146 144 141 137 134 132 128 128 130 132 129 127 128 128 128 131 133 137 136 132 129 129 136 131 126 127 127 124 122 122 119 115 104 80
245 242 232 212 191 175 158 151 151 149 146 141 138 136 136 135 133 130 129 127 124 120 122 129 132 132 132 133 130 129 131 132 129 122 122 123 123 123 122 122 122 119 119 118
231 220 201 183 174 162 151 148 149 146 142 141 138 136 133 130 128 129 129 129 129 127 126 126 127 132 128 127 130 130 129 127 125 123 123 126 131 129 130 129 126 125 124 122
198 187 174 161 155 152 148 145 144 142 142 141 137 133 130 129 131 131 129 125 125 127 131 134 136 131 130 134 143 136 134 134 133 133 134 138 137 135 132 129 127 125 122 120
167 157 149 145 141 139 140 139 139 140 140 140 138 135 132 131 133 132 129 123 120 125 131 137 139 136 138 143 161 142 140 140 139 140 142 141 138 137 134 133 131 131 133 134
146 140 137 136 132 129 131 134 135 136 136 135 135 133 131 132 132 127 122 125 131 137 142 144 141 133 140 157 152 143 142 141 140 140 140 141 145 147 143 143 144 144 145 144
125 127 128 129 129 126 125 128 131 132 134 135 136 137 137 136 138 138 136 135 139 143 141 135 128 132 154 164 144 142 142 144 145 147 148 152 154 152 151 155 157 160 162 162
120 120 121 123 125 125 125 125 124 126 130 132 135 137 137 136 135 133 129 129 132 139 133 122 130 145 173 152 144 147 150 154 158 157 154 154 156 157 158 162 167 171 172 178
122 122 123 126 124 124 124 125 124 126 125 124 125 130 133 133 133 131 131 136 140 140 130 132 143 162 164 147 149 154 160 154 150 152 150 153 158 160 163 170 176 183 186 189
120 119 119 121 120 122 127 129 129 128 126 125 124 125 124 124 127 130 133 140 142 140 138 142 150 167 157 151 151 153 150 144 150 162 154 161 168 169 167 174 187 200 201 202
116 115 116 116 120 125 127 127 127 129 130 129 128 129 129 130 132 137 140 144 147 147 145 148 154 161 160 157 156 158 159 160 161 163 165 172 179 184 180 190 205 206 211 209
Height
1475 1473 1475 1479 1482 1484 1486 1484 1488 1486 1486 1484 1486 1491 1497 1501 1505 1509 1512 1515 1518 1520 1523 1525 1526 1528 1530 1531 1533 1534 1535 1535 1535 1536 1536 1537 1537 1537 1536 1536 1535 1535 1534 1534
1481 1477 1478 1480 1478 1480 1482 1481 1481 1482 1483 1482 1487 1492 1496 1500 1504 1507 1511 1514 1517 1520 1522 1524 1526 1528 1530 1531 1533 1534 1535 1536 1536 1537 1537 1537 1537 1537 1536 1535 1535 1534 1534 1533
1481 1478 1482 1486 1477 1478 1479 1478 1479 1482 1481 1484 1488 1492 1495 1499 1502 1506 1509 1513 1516 1519 1521 1524 1526 1528 1530 1531 1533 1534 1535 1536 1537 1537 1537 1537 1537 1536 1536 1535 1535 1534 1534 1532
1477 1485 1496 1476 1470 1472 1475 1476 1476 1477 1479 1484 1488 1492 1496 1499 1502 1505 1509 1512 1515 1518 1521 1523 1526 1528 1529 1531 1533 1534 1535 1536 1537 1537 1537 1537 1537 1537 1537 1536 1535 1535 1534 1533
1477 1483 1480 1475 1473 1473 1476 1477 1477 1478 1481 1486 1489 1493 1496 1499 1502 1505 1508 1511 1514 1517 1520 1522 1525 1527 1529 1531 1533 1534 1535 1536 1537 1537 1537 1537 1537 1537 1537 1537 1536 1536 1535 1534
1478 1483 1485 1473 1471 1475 1477 1480 1478 1480 1482 1486 1489 1488 1492 1498 1501 1504 1507 1510 1513 1516 1519 1521 1524 1527 1529 1530 1532 1534 1535 1536 1537 1537 1537 1537 1538 1538 1538 1538 1537 1537 1536 1535
1477 1478 1470 1470 1474 1477 1484 1481 1481 1481 1483 1486 1487 1487 1492 1496 1500 1503 1506 1509 1512 1516 1518 1521 1524 1526 1528 1530 1532 1533 1535 1536 1537 1537 1538 1538 1538 1538 1539 1539 1539 1538 1537 1537
1474 1478 1475 1475 1474 1475 1479 1482 1482 1483 1484 1487 1489 1490 1492 1496 1499 1502 1505 1508 1512 1515 1518 1521 1523 1526 1528 1529 1531 1533 1534 1536 1537 1537 1538 1538 1539 1539 1539 1540 1540 1540 1540 1539
1468 1472 1476 1478 1478 1481 1482 1482 1483 1484 1485 1487 1489 1491 1493 1496 1499 1503 1505 1508 1512 1514 1517 1520 1523 1526 1527 1529 1531 1532 1534 1535 1537 1537 1538 1539 1539 1540 1541 1541 1542 1542 1542 1542
1473 1473 1477 1479 1480 1481 1482 1483 1483 1484 1485 1487 1489 1491 1494 1496 1499 1502 1506 1509 1512 1515 1517 1520 1523 1525 1527 1529 1530 1532 1534 1535 1537 1538 1539 1539 1541 1542 1542 1542 1543 1543 1543 1544
1474 1476 1478 1479 1481 1482 1482 1482 1483 1484 1485 1487 1489 1491 1493 1496 1499 1502 1505 1509 1512 1515 1517 1520 1522 1524 1526 1529 1531 1533 1534 1536 1537 1539 1540 1540 1541 1541 1542 1542 1542 1544 1545 1545
1471 1477 1478 1480 1481 1482 1482 1482 1483 1484 1485 1487 1489 1491 1494 1497 1500 1503 1506 1509 1512 1515 1517 1520 1522 1524 1526 1528 1531 1533 1535 1536 1538 1540 1541 1542 1542 1543 1543 1544 1545 1545 1546 1547
1478 1478 1479 1480 1481 1481 1482 1482 1482 1484 1485 1487 1489 1491 1494 1497 1500 1503 1506 1509 1512 1514 1517 1520 1522 1524 1526 1528 1531 1533 1535 1537 1539 1541 1542 1543 1544 1545 1546 1547 1548 1548 1549 1549
1478 1479 1479 1479 1480 1480 1481 1481 1482 1483 1485 1487 1489 1491 1494 1497 1500 1503 1506 1509 1512 1514 1517 1520 1522 1524 1526 1529 1531 1534 1536 1537 1540 1541 1543 1545 1546 1547 1548 1549 1550 1550 1551 1551
1477 1477 1478 1478 1479 1479 1480 1480 1481 1482 1484 1486 1489 1491 1494 1497 1500 1503 1506 1509 1512 1514 1517 1520 1522 1524 1527 1529 1532 1534 1536 1538 1540 1542 1544 1546 1547 1549 1550 1551 1552 1553 1553 1554
1474 1475 1475 1476 1477 1478 1479 1480 1481 1482 1484 1487 1489 1492 1495 1498 1500 1503 1506 1509 1512 1514 1517 1520 1522 1525 1527 1530 1532 1534 1536 1539 1541 1543 1545 1547 1548 1550 1551 1552 1554 1555 1556 1556
1472 1472 1472 1473 1475 1476 1478 1479 1480 1482 1484 1487 1489 1492 1495 1497 1500 1503 1507 1510 1513 1515 1517 1520 1522 1525 1528 1531 1534 1536 1537 1539 1542 1544 1546 1548 1549 1551 1552 1554 1555 1556 1557 1557
1469 1469 1470 1472 1473 1474 1476 1478 1479 1482 1484 1486 1489 1492 1495 1498 1501 1504 1507 1510 1513 1516 1519 1521 1524 1526 1529 1532 1534 1537 1539 1540 1543 1545 1547 1549 1551 1552 1554 1555 1556 1557 1558 1558
1466 1467 1468 1470 1472 1473 1475 1477 1479 1481 1484 1487 1490 1493 1496 1499 1502 1505 1508 1512 1514 1517 1520 1523 1525 1528 1530 1533 1535 1538 1540 1542 1544 1546 1548 1550 1552 1554 1555 1556 1557 1558 1559 1560
1464 1466 1467 1469 1471 1472 1474 1476 1479 1481 1484 1487 1491 1494 1497 1500 1504 1507 1510 1513 1516 1519 1521 1524 1527 1529 1532 1534 1537 1540 1542 1544 1546 1548 1550 1552 1553 1555 1556 1557 1558 1559 1560 1560
1462 1464 1466 1468 1470 1472 1474 1476 1479 1482 1485 1489 1492 1495 1498 1502 1506 1509 1511 1514 1518 1520 1523 1526 1528 1531 1533 1536 1539 1542 1544 1545 1547 1549 1551 1553 1554 1556 1557 1558 1559 1559 1560 1561
1462 1463 1465 1468 1470 1472 1475 1477 1480 1483 1486 1490 1494 1497 1500 1503 1507 1510 1513 1516 1519 1522 1525 1528 1530 1532 1535 1538 1541 1543 1545 1547 1548 1550 1551 1553 1555 1556 1557 1558 1559 1560 1560 1561
1462 1464 1466 1468 1471 1473 1476 1479 1482 1485 1488 1492 1495 1499 1502 1505 1508 1511 1515 1518 1521 1524 1527 1529 1532 1534 1536 1540 1542 1544 1546 1548 1549 1551 1552 1553 1555 1556 1557 1558 1559 1559 1560 1561
1464 1465 1467 1470 1472 1475 1477 1481 1484 1487 1491 1495 1498 1501 1504 1507 1511 1514 1517 1520 1523 1526 1528 1530 1533 1535 1538 1541 1543 1545 1547 1548 1550 1551 1552 1553 1555 1556 1557 1557 1558 1559 1559 1560
1465 1467 1469 1472 1474 1477 1480 1483 1486 1490 1494 1497 1500 1504 1507 1510 1512 1515 1518 1521 1524 1527 1530 1532 1534 1537 1540 1542 1544 1545 1547 1548 1550 1551 1552 1553 1554 1555 1556 1557 1557 1558 1558 1559
1467 1470 1472 1474 1477 1479 1483 1486 1489 1493 1496 1499 1502 1506 1509 1512 1514 1517 1520 1523 1526 1529 1532 1534 1536 1538 1541 1543 1544 1546 1547 1548 1550 1551 1552 1553 1554 1555 1555 1556 1556 1557 1557 1557
1470 1473 1475 1478 1481 1483 1486 1489 1492 1495 1498 1501 1504 1507 1511 1514 1517 1520 1523 1526 1528 1531 1533 1535 1537 1540 1542 1543 1544 1546 1547 1548 1549 1550 1551 1552 1553 1554 1554 1555 1555 1555 1555 1556